Weather History for KINF - February, 2013

Change the Weather History Date:

Saturday, February 16, 2013

  Actual Average (KGNV) Record (KGNV)
Temperature  
Mean Temperature 52 °F 58 °F  
Max Temperature 62 °F 70 °F 84 °F (1990)
Min Temperature 41 °F 46 °F 23 °F (1916)
Degree Days  
Heating Degree Days 14 8  
Month to date heating degree days 145  
Since 1 July heating degree days 947  
Cooling Degree Days 0 1  
Month to date cooling degree days 12  
Year to date cooling degree days 24  
Growing Degree Days 2 (Base 50)    
Moisture  
Dew Point 39 °F    
Average Humidity 70    
Maximum Humidity 100    
Minimum Humidity 39    
Precipitation  
Precipitation 0.00 in 0.12 in 3.14 in (1952)
Month to date precipitation 1.78  
Year to date precipitation 5.09  
Snow  
Snow 0.00 in 0.00 in 0.00 in ()
Month to date snowfall 0.0  
Since 1 July snowfall 0.0  
Snow Depth -    
Sea Level Pressure  
Sea Level Pressure 30.02 in    
Wind  
Wind Speed 2 mph (NW)    
Max Wind Speed 12 mph    
Max Gust Speed 23 mph    
Visibility 10 miles    
Events Rain    
T = Trace of Precipitation, MM = Missing Value Source: NWS Daily Summary

Daily Weather History Graph

Daily Weather History Graph

Search for Another Location

Airport or City:

Trip Planner

Search our weather history database for the weather conditions in past years. The results will help you decide how hot, cold, wet, or windy it might be!

Date:

Astronomy

Feb. 16, 2013 Rise Set
Actual Time 7:06 AM EST 6:20 PM EST
Civil Twilight 6:42 AM EST 6:44 PM EST
Nautical Twilight 6:14 AM EST 7:12 PM EST
Astronomical Twilight 5:47 AM EST 7:39 PM EST
Moon 10:53 AM EST (2/16) No Moon Set
Length of Visible Light 12h 01m
Length of Day
11h 13m
Waxing Crescent, 39% of the Moon is Illuminated
Feb 16
Waxing Crescent
Feb 17
First Quarter
Feb 25
Full
Mar 4
Last Quarter
Mar 11
New

Hourly Weather History & Observations

Time (EST) Temp. Windchill Dew Point Humidity Pressure Visibility Wind Dir Wind Speed Gust Speed Precip Events Conditions
12:15 AM 46.4 °F - 44.6 °F 93% 30.02 in 10.0 mi Calm Calm - N/A   Clear
12:35 AM 44.6 °F - 44.6 °F 100% 30.03 in 10.0 mi Calm Calm - N/A   Clear
12:55 AM 46.4 °F - 46.4 °F 100% 30.03 in 10.0 mi Calm Calm - N/A   Clear
1:15 AM 46.4 °F - 44.6 °F 93% 30.02 in 10.0 mi Calm Calm - N/A   Clear
1:35 AM 46.4 °F - 44.6 °F 93% 30.01 in 10.0 mi Calm Calm - N/A   Clear
1:55 AM 46.4 °F - 44.6 °F 93% 30.00 in 10.0 mi Calm Calm - N/A   Clear
2:15 AM 46.4 °F - 44.6 °F 93% 30.00 in 10.0 mi Calm Calm - N/A   Clear
2:35 AM 46.4 °F 45.2 °F 44.6 °F 93% 29.99 in 10.0 mi NNW 3.5 mph - N/A   Clear
2:55 AM 46.4 °F - 44.6 °F 93% 29.98 in 10.0 mi Calm Calm - N/A   Clear
3:15 AM 46.4 °F - 44.6 °F 93% 29.98 in 10.0 mi Calm Calm - N/A   Clear
3:35 AM 46.4 °F - 44.6 °F 93% 29.98 in 10.0 mi Calm Calm - N/A   Clear
3:55 AM 44.6 °F - 44.6 °F 100% 29.98 in 10.0 mi Calm Calm - N/A   Clear
4:15 AM 44.6 °F - 44.6 °F 100% 29.98 in 10.0 mi Calm Calm - N/A   Clear
4:35 AM 44.6 °F - 42.8 °F 93% 29.98 in 10.0 mi Calm Calm - N/A   Clear
4:55 AM 42.8 °F - 42.8 °F 100% 29.98 in 10.0 mi Calm Calm - N/A   Clear
5:15 AM 42.8 °F - 42.8 °F 100% 29.98 in 7.0 mi Calm Calm - N/A   Clear
5:35 AM 42.8 °F - 42.8 °F 100% 29.98 in 7.0 mi Calm Calm - N/A   Clear
5:55 AM 42.8 °F - 42.8 °F 100% 29.98 in 7.0 mi Calm Calm - N/A   Clear
6:15 AM 42.8 °F - 42.8 °F 100% 29.97 in 7.0 mi Calm Calm - N/A   Clear
6:35 AM 41.0 °F - 41.0 °F 100% 29.97 in 7.0 mi Calm Calm - N/A   Clear
6:55 AM 42.8 °F - 42.8 °F 100% 29.98 in 7.0 mi Calm Calm - N/A   Clear
7:15 AM 42.8 °F - 42.8 °F 100% 29.97 in 7.0 mi Calm Calm - N/A   Clear
7:35 AM 42.8 °F - 42.8 °F 100% 29.97 in 7.0 mi Calm Calm - N/A   Clear
7:55 AM 42.8 °F - 42.8 °F 100% 29.97 in 7.0 mi Calm Calm - N/A   Clear
8:15 AM 44.6 °F - 44.6 °F 100% 29.98 in 10.0 mi Calm Calm - N/A   Clear
8:35 AM 46.4 °F - 46.4 °F 100% 29.98 in 10.0 mi Calm Calm - N/A   Clear
8:55 AM 50.0 °F - 46.4 °F 87% 29.98 in 10.0 mi Calm Calm - N/A   Clear
9:15 AM 51.8 °F - 46.4 °F 82% 30.00 in 10.0 mi WNW 3.5 mph - N/A   Clear
9:35 AM 53.6 °F - 44.6 °F 72% 30.00 in 10.0 mi NW 3.5 mph - N/A   Clear
9:55 AM 57.2 °F - 44.6 °F 63% 30.01 in 10.0 mi NW 3.5 mph - N/A   Clear
10:15 AM 59.0 °F - 42.8 °F 55% 30.01 in 10.0 mi NW 3.5 mph - N/A   Clear
10:35 AM 60.8 °F - 42.8 °F 52% 30.01 in 10.0 mi Calm Calm - N/A   Clear
1:15 PM 62.6 °F - 41.0 °F 45% 29.98 in 10.0 mi WNW 8.1 mph - N/A   Scattered Clouds
1:35 PM 60.8 °F - 44.6 °F 55% 29.99 in 10.0 mi WNW 8.1 mph 18.4 mph N/A   Mostly Cloudy
1:55 PM 62.6 °F - 41.0 °F 45% 29.98 in 10.0 mi West 6.9 mph - N/A   Mostly Cloudy
2:15 PM 62.6 °F - 42.8 °F 48% 29.98 in 10.0 mi NNW 11.5 mph 17.3 mph N/A   Scattered Clouds
2:35 PM 60.8 °F - 41.0 °F 48% 29.98 in 10.0 mi NW 8.1 mph - N/A   Scattered Clouds
2:55 PM 60.8 °F - 41.0 °F 48% 29.99 in 10.0 mi NW 8.1 mph 19.6 mph N/A   Clear
3:15 PM 59.0 °F - 41.0 °F 51% 29.99 in 10.0 mi WNW 9.2 mph - N/A   Scattered Clouds
3:35 PM 59.0 °F - 41.0 °F 51% 30.00 in 10.0 mi West 6.9 mph - N/A   Mostly Cloudy
3:55 PM 59.0 °F - 35.6 °F 42% 30.00 in 10.0 mi WNW 8.1 mph 23.0 mph N/A   Scattered Clouds
4:15 PM 59.0 °F - 35.6 °F 42% 30.01 in 10.0 mi WNW 11.5 mph - N/A   Clear
4:35 PM 55.4 °F - 37.4 °F 51% 30.01 in 10.0 mi WNW 4.6 mph 17.3 mph N/A   Clear
4:55 PM 55.4 °F - 35.6 °F 47% 30.01 in 10.0 mi West 6.9 mph - N/A   Clear
5:15 PM 53.6 °F - 35.6 °F 51% 30.01 in 10.0 mi West 8.1 mph 18.4 mph N/A   Clear
5:35 PM 53.6 °F - 37.4 °F 54% 30.01 in 10.0 mi NW 8.1 mph - N/A   Clear
5:55 PM 53.6 °F - 35.6 °F 51% 30.03 in 10.0 mi Calm Calm - N/A   Scattered Clouds
6:15 PM 51.8 °F - 35.6 °F 54% 30.03 in 10.0 mi NW 3.5 mph - N/A   Scattered Clouds
6:35 PM 51.8 °F - 35.6 °F 54% 30.03 in 10.0 mi Calm Calm - N/A   Mostly Cloudy
6:55 PM 51.8 °F - 35.6 °F 54% 30.03 in 10.0 mi Calm Calm - N/A   Overcast
7:15 PM 48.2 °F - 35.6 °F 62% 30.04 in 10.0 mi Calm Calm - N/A   Mostly Cloudy
7:35 PM 51.8 °F - 35.6 °F 54% 30.04 in 10.0 mi WSW 3.5 mph - N/A   Scattered Clouds
7:55 PM 51.8 °F - 33.8 °F 50% 30.05 in 10.0 mi Calm Calm - N/A   Clear
8:15 PM 53.6 °F - 33.8 °F 47% 30.05 in 10.0 mi WSW 5.8 mph - N/A   Mostly Cloudy
8:35 PM 53.6 °F - 33.8 °F 47% 30.06 in 10.0 mi West 4.6 mph - N/A Rain Light Rain
8:55 PM 53.6 °F - 32.0 °F 44% 30.08 in 10.0 mi NNW 6.9 mph - N/A   Overcast
9:15 PM 51.8 °F - 30.2 °F 44% 30.10 in 10.0 mi NNW 10.4 mph 20.7 mph N/A   Overcast
9:35 PM 51.8 °F - 28.4 °F 41% 30.11 in 10.0 mi NNW 11.5 mph 18.4 mph N/A   Overcast
9:55 PM 50.0 °F - 28.4 °F 43% 30.13 in 10.0 mi NNW 9.2 mph 23.0 mph N/A   Mostly Cloudy
10:15 PM 48.2 °F - 28.4 °F 46% 30.15 in 10.0 mi NNW 11.5 mph 21.9 mph N/A   Scattered Clouds
10:35 PM 46.4 °F 42.9 °F 26.6 °F 46% 30.16 in 10.0 mi NNW 6.9 mph 18.4 mph N/A   Scattered Clouds
10:55 PM 46.4 °F 41.9 °F 24.8 °F 43% 30.16 in 10.0 mi NNW 9.2 mph 17.3 mph N/A   Clear
11:15 PM 46.4 °F 42.4 °F 23.0 °F 40% 30.17 in 10.0 mi North 8.1 mph 17.3 mph N/A   Clear
11:35 PM 44.6 °F 40.2 °F 23.0 °F 43% 30.18 in 10.0 mi NNW 8.1 mph 16.1 mph N/A   Clear
11:55 PM 44.6 °F 40.7 °F 21.2 °F 39% 30.19 in 10.0 mi North 6.9 mph - N/A   Clear